Location: Township of Marena
(38.1747°N, 99.6798°W)
Time: 03:23:38
(UTC+00:00)

Nadezhda 4 Rocket - Pass Details

Date: 26 October 2020
Orbit: 950 x 991 km, 82.9° (Epoch: 24 November)

Event Time Altitude Azimuth Distance (km) Brightness Sun altitude
Rises 10:50:00 0° 179° (S) 3,608 7.0 -25.9°
Reaches altitude 10° 10:52:29 10° 177° (S) 2,666 6.3 -25.4°
Maximum altitude 10:58:32 72° 94° (E) 999 4.1 -24.3°
Drops below altitude 10° 11:04:39 10° 11° (N) 2,689 6.4 -23.1°
Sets 11:07:10 0° 10° (N) 3,643 7.1 -22.6°
